GW3643 Weather Reports


Display with metric or nautical units.
time (UTC)temp
F
wind
direction
speed
MPH
gust
MPH
rain 1hr
in
rain 24hr
in
rain mn
in
humidity
%
barometer
mb
20260903220111 87 0 0.0 0.0 0.00 0.00 0.00 20 1023.5
20260903215545 87 0 0.0 2.0 0.00 0.00 0.00 19 1023.4
20260903215043 87 0 0.0 2.0 0.00 0.00 0.00 18 1023.4
20260903214559 88 0 0.0 2.0 0.00 0.00 0.00 17 1023.4
20260903214043 88 51 0.0 3.0 0.00 0.00 0.00 17 1023.4
20260903213544 88 51 0.0 3.0 0.00 0.00 0.00 18 1023.3
20260903213102 88 301 0.0 3.0 0.00 0.00 0.00 19 1023.4
20260903212544 88 17 0.0 1.0 0.00 0.00 0.00 18 1023.4
20260903212046 88 0 0.0 1.0 0.00 0.00 0.00 18 1023.4
20260903211618 88 0 0.0 1.0 0.00 0.00 0.00 17 1023.4
20260903211048 88 0 0.0 1.0 0.00 0.00 0.00 18 1023.4
20260903210544 89 0 0.0 1.0 0.00 0.00 0.00 17 1023.4
20260903210108 89 0 0.0 1.0 0.00 0.00 0.00 18 1023.5
20260903205543 89 0 0.0 1.0 0.00 0.00 0.00 17 1023.4
20260903205043 89 0 0.0 2.0 0.00 0.00 0.00 17 1023.3
20260903204559 89 0 0.0 2.0 0.00 0.00 0.00 17 1023.3
20260903204045 89 0 0.0 2.0 0.00 0.00 0.00 17 1023.3
20260903203543 89 0 0.0 2.0 0.00 0.00 0.00 17 1023.2
20260903203056 89 0 0.0 3.0 0.00 0.00 0.00 16 1023.1
20260903202545 89 17 1.0 4.0 0.00 0.00 0.00 17 1023.0
20260903202048 89 5 1.0 4.0 0.00 0.00 0.00 16 1022.9
20260903201557 89 336 1.0 3.0 0.00 0.00 0.00 17 1022.8
20260903201043 90 336 1.0 3.0 0.00 0.00 0.00 17 1022.8
20260903200543 90 336 0.0 1.0 0.00 0.00 0.00 17 1022.7
20260903200054 90 0 0.0 2.0 0.00 0.00 0.00 17 1022.7
20260903195544 90 0 0.0 2.0 0.00 0.00 0.00 17 1022.7
20260903195043 90 0 0.0 3.0 0.00 0.00 0.00 17 1022.7
20260903194559 91 0 0.0 4.0 0.00 0.00 0.00 17 1022.6
20260903194045 91 341 0.0 4.0 0.00 0.00 0.00 17 1022.4
20260903193542 91 3 1.0 4.0 0.00 0.00 0.00 17 1022.4
20260903193056 91 329 0.0 3.0 0.00 0.00 0.00 18 1022.3
20260903192544 91 0 1.0 3.0 0.00 0.00 0.00 18 1022.3
20260903192043 92 288 0.0 3.0 0.00 0.00 0.00 18 1022.2
20260903191555 92 334 1.0 3.0 0.00 0.00 0.00 17 1022.3
20260903191044 93 332 0.0 4.0 0.00 0.00 0.00 17 1022.1
20260903190545 93 0 0.0 4.0 0.00 0.00 0.00 17 1022.1
20260903190105 93 279 0.0 4.0 0.00 0.00 0.00 17 1022.0
20260903185543 94 0 0.0 2.0 0.00 0.00 0.00 18 1021.9
20260903185046 94 0 0.0 2.0 0.00 0.00 0.00 17 1021.9
20260903184604 94 0 0.0 3.0 0.00 0.00 0.00 17 1021.9
20260903184046 94 0 0.0 3.0 0.00 0.00 0.00 17 1021.9
20260903183542 95 304 0.0 3.0 0.00 0.00 0.00 17 1021.9
20260903183057 95 299 0.0 4.0 0.00 0.00 0.00 17 1021.9
20260903182546 96 0 0.0 4.0 0.00 0.00 0.00 16 1021.8
20260903182045 96 223 0.0 4.0 0.00 0.00 0.00 16 1021.8
20260903181553 96 0 1.0 4.0 0.00 0.00 0.00 16 1021.9
20260903181044 96 0 0.0 6.0 0.00 0.00 0.00 16 1022.1
20260903180544 96 0 1.0 6.0 0.00 0.00 0.00 16 1022.0
20260903180112 96 212 1.0 7.0 0.00 0.00 0.00 16 1022.0
20260903175547 96 0 1.0 7.0 0.00 0.00 0.00 15 1022.0
20260903175043 96 205 3.0 9.0 0.00 0.00 0.00 15 1022.0
20260903174611 96 218 1.0 9.0 0.00 0.00 0.00 15 1022.0
20260903174045 96 272 2.0 10.0 0.00 0.00 0.00 15 1022.0
20260903173545 96 207 4.0 10.0 0.00 0.00 0.00 15 1022.0
20260903173111 97 209 3.0 9.0 0.00 0.00 0.00 15 1022.1
20260903172545 97 0 2.0 10.0 0.00 0.00 0.00 15 1022.0
20260903172048 97 201 5.0 10.0 0.00 0.00 0.00 15 1021.9
20260903171605 97 212 0.0 5.0 0.00 0.00 0.00 15 1021.8
20260903171043 97 164 2.0 5.0 0.00 0.00 0.00 14 1022.0
20260903170543 97 205 2.0 9.0 0.00 0.00 0.00 14 1022.0
20260903170113 97 227 1.0 10.0 0.00 0.00 0.00 14 1022.1
20260903165545 97 179 5.0 10.0 0.00 0.00 0.00 14 1022.0
20260903165047 97 0 2.0 8.0 0.00 0.00 0.00 14 1022.0
20260903164605 97 222 4.0 9.0 0.00 0.00 0.00 14 1022.1
20260903164044 97 0 4.0 9.0 0.00 0.00 0.00 14 1022.1
20260903163544 97 245 2.0 10.0 0.00 0.00 0.00 14 1022.1
20260903163110 97 195 4.0 10.0 0.00 0.00 0.00 14 1022.1
20260903162547 97 212 2.0 11.0 0.00 0.00 0.00 14 1022.1
20260903162043 97 224 5.0 11.0 0.00 0.00 0.00 14 1022.1
20260903161600 98 178 3.0 10.0 0.00 0.00 0.00 14 1022.2
20260903161046 97 0 3.0 9.0 0.00 0.00 0.00 14 1022.1
20260903160545 97 186 4.0 9.0 0.00 0.00 0.00 14 1022.1
20260903160106 97 195 2.0 12.0 0.00 0.00 0.00 14 1022.0
20260903155545 97 172 5.0 12.0 0.00 0.00 0.00 14 1022.1
20260903155047 96 197 5.0 11.0 0.00 0.00 0.00 14 1022.1
20260903154606 96 203 4.0 10.0 0.00 0.00 0.00 14 1022.2
20260903154042 97 188 2.0 11.0 0.00 0.00 0.00 14 1022.2
20260903153543 98 198 2.0 11.0 0.00 0.00 0.00 14 1022.1
20260903153059 98 249 4.0 10.0 0.00 0.00 0.00 14 1022.2
20260903152543 98 159 5.0 9.0 0.00 0.00 0.00 14 1022.2
20260903152046 98 45 0.0 13.0 0.00 0.00 0.00 14 1022.2
20260903151603 97 203 5.0 13.0 0.00 0.00 0.00 14 1022.3
20260903151045 97 153 3.0 11.0 0.00 0.00 0.00 14 1022.2
20260903150544 97 197 4.0 11.0 0.00 0.00 0.00 14 1022.4
20260903150114 97 205 4.0 14.0 0.00 0.00 0.00 14 1022.5
20260903145545 97 163 5.0 14.0 0.00 0.00 0.00 13 1022.5
20260903145046 98 245 2.0 8.0 0.00 0.00 0.00 13 1022.6
20260903144559 98 196 3.0 9.0 0.00 0.00 0.00 13 1022.6
20260903144045 99 260 2.0 9.0 0.00 0.00 0.00 14 1022.6
20260903143548 98 245 1.0 12.0 0.00 0.00 0.00 14 1022.6
20260903143105 97 180 2.0 12.0 0.00 0.00 0.00 14 1022.6
20260903142546 98 197 3.0 10.0 0.00 0.00 0.00 14 1022.7
20260903142046 97 217 2.0 10.0 0.00 0.00 0.00 14 1022.7
20260903141604 98 24 3.0 11.0 0.00 0.00 0.00 14 1022.7
20260903141042 98 0 3.0 11.0 0.00 0.00 0.00 14 1022.8
20260903140542 99 6 2.0 10.0 0.00 0.00 0.00 14 1022.8
20260903140101 98 267 1.0 9.0 0.00 0.00 0.00 14 1022.8
20260903135546 97 186 2.0 9.0 0.00 0.00 0.00 14 1022.9
20260903135045 97 359 3.0 7.0 0.00 0.00 0.00 15 1022.9
20260903134601 98 10 1.0 7.0 0.00 0.00 0.00 15 1023.1
20260903134045 97 255 2.0 7.0 0.00 0.00 0.00 15 1023.2
20260903133549 98 164 1.0 12.0 0.00 0.00 0.00 15 1023.2
20260903133059 97 274 2.0 12.0 0.00 0.00 0.00 15 1023.3
20260903132547 97 203 2.0 9.0 0.00 0.00 0.00 15 1023.5
20260903132042 95 206 1.0 8.0 0.00 0.00 0.00 16 1023.4
20260903131601 96 229 4.0 8.0 0.00 0.00 0.00 15 1023.5
20260903131045 97 203 2.0 6.0 0.00 0.00 0.00 15 1023.5
20260903130546 97 202 1.0 5.0 0.00 0.00 0.00 16 1023.5
20260903130113 97 0 1.0 5.0 0.00 0.00 0.00 16 1023.5
20260903125544 97 259 1.0 7.0 0.00 0.00 0.00 15 1023.6
20260903125046 96 341 2.0 16.0 0.00 0.00 0.00 17 1023.6
20260903124557 96 213 5.0 16.0 0.00 0.00 0.00 17 1023.7
20260903124045 95 182 3.0 9.0 0.00 0.00 0.00 17 1023.7
20260903123546 95 253 4.0 9.0 0.00 0.00 0.00 17 1023.8
20260903123058 94 198 3.0 15.0 0.00 0.00 0.00 16 1023.8
20260903122545 94 209 6.0 15.0 0.00 0.00 0.00 18 1023.8
20260903122043 94 243 2.0 11.0 0.00 0.00 0.00 21 1023.8
20260903121554 93 3 1.0 12.0 0.00 0.00 0.00 22 1023.9
20260903121046 92 250 2.0 12.0 0.00 0.00 0.00 22 1023.9
20260903120545 92 36 2.0 9.0 0.00 0.00 0.00 23 1024.0
20260903120055 94 191 0.0 9.0 0.00 0.00 0.00 22 1024.1
20260903115544 92 0 2.0 8.0 0.00 0.00 0.00 23 1024.0
20260903115046 93 0 4.0 8.0 0.00 0.00 0.00 22 1024.0
20260903114600 93 218 1.0 8.0 0.00 0.00 0.00 23 1024.0
20260903114044 90 231 2.0 8.0 0.00 0.00 0.00 24 1024.1
20260903113543 91 208 1.0 8.0 0.00 0.00 0.00 24 1024.2
20260903113056 90 201 4.0 8.0 0.00 0.00 0.00 24 1024.2
20260903112549 90 0 4.0 8.0 0.00 0.00 0.00 24 1024.2
20260903112044 91 134 2.0 10.0 0.00 0.00 0.00 23 1024.2
20260903111625 90 0 3.0 10.0 0.00 0.00 0.00 26 1024.3
20260903111043 90 170 4.0 8.0 0.00 0.00 0.00 26 1024.2
20260903110543 90 206 2.0 5.0 0.00 0.00 0.00 28 1024.2
20260903110110 90 0 0.0 6.0 0.00 0.00 0.00 28 1024.3
20260903105544 89 239 3.0 6.0 0.00 0.00 0.00 29 1024.4
20260903105044 88 140 1.0 5.0 0.00 0.00 0.00 29 1024.3
20260903104630 89 188 1.0 5.0 0.00 0.00 0.00 29 1024.4
20260903104043 90 257 2.0 5.0 0.00 0.00 0.00 27 1024.5
20260903103544 88 0 0.0 4.0 0.00 0.00 0.00 30 1024.5
20260903103059 88 188 1.0 4.0 0.00 0.00 0.00 29 1024.6
20260903102545 88 39 0.0 3.0 0.00 0.00 0.00 31 1024.6
20260903102047 89 81 0.0 3.0 0.00 0.00 0.00 30 1024.5
20260903101557 88 233 0.0 3.0 0.00 0.00 0.00 30 1024.6
20260903101049 85 264 0.0 2.0 0.00 0.00 0.00 33 1024.7
20260903100547 85 0 0.0 3.0 0.00 0.00 0.00 34 1024.7
20260903100056 85 188 0.0 3.0 0.00 0.00 0.00 33 1024.6
20260903095544 84 169 0.0 5.0 0.00 0.00 0.00 34 1024.6
20260903095045 85 240 1.0 5.0 0.00 0.00 0.00 35 1024.7
20260903094608 84 177 1.0 4.0 0.00 0.00 0.00 35 1024.7
20260903094043 85 187 0.0 3.0 0.00 0.00 0.00 35 1024.6
20260903093546 84 182 0.0 3.0 0.00 0.00 0.00 35 1024.4
20260903093056 84 0 0.0 3.0 0.00 0.00 0.00 36 1024.5
20260903092544 83 22 1.0 4.0 0.00 0.00 0.00 37 1024.5
20260903092047 81 0 1.0 5.0 0.00 0.00 0.00 38 1024.6
20260903091556 81 0 0.0 5.0 0.00 0.00 0.00 38 1024.5
20260903091046 80 173 1.0 4.0 0.00 0.00 0.00 39 1024.5
20260903090545 81 188 0.0 4.0 0.00 0.00 0.00 39 1024.5
20260903085545 80 0 1.0 4.0 0.00 0.00 0.00 39 1024.5
20260903085045 80 157 1.0 3.0 0.00 0.00 0.00 38 1024.5
20260903084600 80 165 0.0 3.0 0.00 0.00 0.00 38 1024.5
20260903084046 79 158 0.0 3.0 0.00 0.00 0.00 38 1024.5
20260903083548 80 180 0.0 2.0 0.00 0.00 0.00 38 1024.4
20260903083057 79 159 0.0 2.0 0.00 0.00 0.00 39 1024.5
20260903082545 78 168 0.0 3.0 0.00 0.00 0.00 39 1024.4
20260903082043 78 0 1.0 3.0 0.00 0.00 0.00 39 1024.5
20260903081555 79 152 0.0 2.0 0.00 0.00 0.00 38 1024.3
20260903081043 79 37 0.0 4.0 0.00 0.00 0.00 39 1024.4
20260903080543 78 38 0.0 4.0 0.00 0.00 0.00 40 1024.4
20260903080057 77 120 1.0 4.0 0.00 0.00 0.00 40 1024.4
20260903075546 77 26 1.0 4.0 0.00 0.00 0.00 40 1024.4
20260903075043 77 0 0.0 3.0 0.00 0.00 0.00 40 1024.3
20260903074602 76 0 1.0 6.0 0.00 0.00 0.00 40 1024.2
20260903074046 76 0 1.0 6.0 0.00 0.00 0.00 40 1024.2
20260903073543 76 0 0.0 3.0 0.00 0.00 0.00 40 1024.3
20260903073111 76 0 0.0 4.0 0.00 0.00 0.00 41 1024.3
20260903072547 75 156 0.0 4.0 0.00 0.00 0.00 41 1024.4
20260903072043 75 65 0.0 4.0 0.00 0.00 0.00 41 1024.4
20260903071605 74 0 1.0 4.0 0.00 0.00 0.00 41 1024.3
20260903071043 75 0 1.0 5.0 0.00 0.00 0.00 42 1024.2
20260903070548 75 73 2.0 5.0 0.00 0.00 0.00 41 1024.1
20260903070100 75 122 0.0 2.0 0.00 0.00 0.00 40 1024.0
20260903065545 75 0 0.0 5.0 0.00 0.00 0.00 41 1024.0
20260903065044 74 0 0.0 5.0 0.00 0.00 0.00 42 1024.0
20260903064556 74 31 0.0 4.0 0.00 0.00 0.00 42 1023.9
20260903064044 73 0 0.0 4.0 0.00 0.00 0.00 42 1023.8
20260903063544 74 0 0.0 3.0 0.00 0.00 0.00 42 1023.7
20260903063102 73 0 0.0 3.0 0.00 0.00 0.00 42 1023.7
20260903062549 74 0 0.0 3.0 0.00 0.00 0.00 42 1023.7
20260903062045 74 0 0.0 1.0 0.00 0.00 0.00 42 1023.6
20260903061611 74 0 0.0 3.0 0.00 0.00 0.00 42 1023.5
20260903061042 73 0 0.0 3.0 0.00 0.00 0.00 42 1023.4
20260903060544 73 0 0.0 3.0 0.00 0.00 0.00 42 1023.4
20260903060104 73 95 0.0 3.0 0.00 0.00 0.00 42 1023.4
20260903055545 73 57 0.0 8.0 0.00 0.00 0.00 42 1023.3
20260903055043 73 0 1.0 8.0 0.00 0.00 0.00 42 1023.2
20260903054603 73 0 1.0 8.0 0.00 0.00 0.00 42 1023.2
20260903054043 73 30 2.0 8.0 0.00 0.00 0.00 41 1023.2
20260903053543 73 93 1.0 7.0 0.00 0.00 0.00 41 1023.2
20260903053108 73 93 1.0 7.0 0.00 0.00 0.00 41 1023.0
20260903052544 73 76 1.0 6.0 0.00 0.00 0.00 40 1023.0
20260903052044 73 73 1.0 6.0 0.00 0.00 0.00 40 1022.9
20260903051557 74 83 1.0 6.0 0.00 0.00 0.00 41 1022.9
20260903051043 74 0 1.0 9.0 0.00 0.00 0.00 41 1022.8
20260903050543 74 104 2.0 9.0 0.00 0.00 0.00 41 1022.8
20260903050101 74 57 2.0 9.0 0.00 0.00 0.00 40 1022.8
20260903045543 74 83 1.0 9.0 0.00 0.00 0.00 40 1022.9
20260903045043 74 31 1.0 8.0 0.00 0.00 0.00 40 1022.9
20260903044555 75 59 1.0 8.0 0.00 0.00 0.00 40 1023.0
20260903044043 75 120 0.0 7.0 0.00 0.00 0.00 41 1023.1
20260903043543 75 0 1.0 7.0 0.00 0.00 0.00 41 1023.1
20260903043059 75 0 0.0 5.0 0.00 0.00 0.00 41 1023.1
20260903042542 75 74 1.0 5.0 0.00 0.00 0.00 40 1023.2
20260903042045 75 0 0.0 5.0 0.00 0.00 0.00 39 1023.1
20260903041558 75 18 1.0 5.0 0.00 0.00 0.00 39 1023.1
20260903041043 75 1 0.0 5.0 0.00 0.00 0.00 39 1023.0
20260903040543 75 56 1.0 8.0 0.00 0.00 0.00 38 1023.0
20260903040106 75 0 1.0 8.0 0.00 0.00 0.00 38 1023.0
20260903035543 75 57 1.0 6.0 0.00 0.00 0.00 37 1023.0
20260903035044 75 60 2.0 6.0 0.00 0.00 0.00 37 1023.0
20260903034559 76 41 1.0 5.0 0.00 0.00 0.00 37 1023.0
20260903034045 76 121 1.0 5.0 0.00 0.00 0.00 38 1022.9
20260903033542 76 0 1.0 7.0 0.00 0.00 0.00 37 1022.9
20260903033055 76 0 0.0 7.0 0.00 0.00 0.00 37 1022.8
20260903032544 76 0 2.0 7.0 0.00 0.00 0.00 37 1022.8
20260903032044 76 341 2.0 7.0 0.00 0.00 0.00 37 1022.8
20260903031600 76 0 1.0 5.0 0.00 0.00 0.00 37 1022.9
20260903031044 77 1 2.0 5.0 0.00 0.00 0.00 38 1022.8
20260903030543 77 0 1.0 9.0 0.00 0.00 0.00 38 1022.9
20260903030113 77 0 0.0 9.0 0.00 0.00 0.00 38 1022.9
20260903025546 77 0 2.0 9.0 0.00 0.00 0.00 39 1022.9
20260903025043 77 69 0.0 6.0 0.00 0.00 0.00 39 1022.9
20260903024555 78 91 0.0 6.0 0.00 0.00 0.00 39 1022.9
20260903024044 78 37 2.0 7.0 0.00 0.00 0.00 39 1022.8
20260903023544 78 32 2.0 9.0 0.00 0.00 0.00 39 1022.8
20260903023053 78 0 1.0 9.0 0.00 0.00 0.00 39 1022.8
20260903022543 78 49 1.0 7.0 0.00 0.00 0.00 39 1022.8
20260903022044 78 39 1.0 10.0 0.00 0.00 0.00 39 1022.8
20260903021558 78 226 1.0 10.0 0.00 0.00 0.00 39 1022.7
20260903021043 78 18 3.0 10.0 0.00 0.00 0.00 38 1022.7
20260903020543 78 14 0.0 6.0 0.00 0.00 0.00 38 1022.7
20260903020053 78 20 1.0 6.0 0.00 0.00 0.00 38 1022.7
20260903015547 78 0 1.0 6.0 0.00 0.00 0.00 38 1022.8
20260903015043 78 93 1.0 6.0 0.00 0.00 0.00 37 1022.7
20260903014611 78 86 1.0 8.0 0.00 0.00 0.00 37 1022.8
20260903014043 79 119 1.0 8.0 0.00 0.00 0.00 36 1022.8
20260903013545 79 262 2.0 8.0 0.00 0.00 0.00 36 1022.8
20260903013105 79 341 1.0 6.0 0.00 0.00 0.00 35 1022.8
20260903012543 79 93 0.0 9.0 0.00 0.00 0.00 35 1022.7
20260903012046 79 42 1.0 9.0 0.00 0.00 0.00 34 1022.8
20260903011607 79 329 1.0 6.0 0.00 0.00 0.00 34 1022.8
20260903011043 79 0 0.0 6.0 0.00 0.00 0.00 33 1022.7
20260903010543 79 0 1.0 10.0 0.00 0.00 0.00 32 1022.7
20260903010118 79 334 3.0 10.0 0.00 0.00 0.00 31 1022.8
20260903005543 79 221 0.0 7.0 0.00 0.00 0.00 30 1022.7
20260903005043 80 0 0.0 8.0 0.00 0.00 0.00 29 1022.7
20260903004556 80 0 2.0 8.0 0.00 0.00 0.00 28 1022.7
20260903004045 80 61 2.0 8.0 0.00 0.00 0.00 27 1022.6
20260903003544 80 41 3.0 9.0 0.00 0.00 0.00 26 1022.7
20260903003058 80 26 1.0 9.0 0.00 0.00 0.00 26 1022.7
20260903002543 80 91 2.0 9.0 0.00 0.00 0.00 26 1022.8
20260903002045 81 72 2.0 9.0 0.00 0.00 0.00 25 1022.7
20260903001600 81 300 2.0 9.0 0.00 0.00 0.00 25 1022.7
20260903001045 81 57 1.0 8.0 0.00 0.00 0.00 24 1022.8
20260903000543 81 360 2.0 7.0 0.00 0.00 0.00 24 1022.8
20260903000100 81 42 2.0 6.0 0.00 0.00 0.00 23 1022.7
20260902235544 82 43 0.0 6.0 0.00 0.00 0.00 23 1022.7
20260902235043 82 86 1.0 8.0 0.00 0.00 0.00 22 1022.6
20260902234556 82 92 1.0 8.0 0.00 0.00 0.00 22 1022.6
20260902234043 82 157 2.0 8.0 0.00 0.00 0.00 22 1022.5
20260902233543 83 124 3.0 7.0 0.00 0.00 0.00 21 1022.5
20260902233055 83 351 1.0 9.0 0.00 0.00 0.00 22 1022.5
20260902232544 83 164 1.0 9.0 0.00 0.00 0.00 22 1022.5
20260902232044 83 132 2.0 9.0 0.00 0.00 0.00 22 1022.5
20260902231611 83 136 0.0 4.0 0.00 0.00 0.00 24 1022.5
20260902231043 82 125 0.0 4.0 0.00 0.00 0.00 25 1022.6
20260902230543 82 0 1.0 3.0 0.00 0.00 0.00 25 1022.5
20260902230059 82 42 0.0 3.0 0.00 0.00 0.00 25 1022.5
20260902225543 82 0 0.0 2.0 0.00 0.00 0.00 25 1022.4
20260902225045 82 341 0.0 2.0 0.00 0.00 0.00 25 1022.5
20260902224607 82 0 0.0 2.0 0.00 0.00 0.00 25 1022.4
20260902224047 83 0 0.0 1.0 0.00 0.00 0.00 25 1022.4
20260902223544 83 0 0.0 1.0 0.00 0.00 0.00 24 1022.4
20260902223058 82 0 0.0 0.0 0.00 0.00 0.00 26 1022.3
20260902222546 82 0 0.0 0.0 0.00 0.00 0.00 27 1022.3
20260902222047 82 0 0.0 0.0 0.00 0.00 0.00 27 1022.2
20260902221618 82 0 0.0 0.0 0.00 0.00 0.00 28 1022.2
20260902221044 82 0 0.0 0.0 0.00 0.00 0.00 27 1022.2
20260902220543 83 0 0.0 0.0 0.00 0.00 0.00 28 1022.2